timestamp,surface_pressure_avg,surface_temp_avg,battery_voltage,lat,long
2022-01-10 00:09:00+00:00,234.4298,3.6,12.65,47.84626,-54.09684
2022-01-10 00:19:00+00:00,236.4881,3.67,12.65,47.84626,-54.09684
2022-01-10 00:29:00+00:00,237.4131,3.7,12.65,47.84626,-54.09684
2022-01-10 00:39:00+00:00,241.2814,3.7,12.65,47.84626,-54.09684
2022-01-10 00:49:00+00:00,242.5348,3.7,12.65,47.84626,-54.09684
2022-01-10 00:59:00+00:00,242.7914,3.7,12.65,47.84626,-54.09684
2022-01-10 01:09:00+00:00,245.4064,3.69,12.65,47.84626,-54.09684
2022-01-10 01:19:00+00:00,246.0398,3.68,12.57,47.84626,-54.09684
2022-01-10 01:29:00+00:00,244.6397,3.69,12.57,47.84626,-54.09684
2022-01-10 01:39:00+00:00,250.0748,3.68,12.57,47.84626,-54.09684
2022-01-10 01:49:00+00:00,255.5031,3.67,12.57,47.84626,-54.09684
2022-01-10 01:59:00+00:00,255.5247,3.69,12.57,47.84626,-54.09684
2022-01-10 02:09:00+00:00,260.9064,3.69,12.57,47.84626,-54.09684
2022-01-10 02:19:01+00:00,269.6064,3.68,12.65,47.84626,-54.09684
2022-01-10 02:29:01+00:00,272.0714,3.6,12.65,47.84626,-54.09684
2022-01-10 02:39:01+00:00,268.0797,3.66,12.65,47.84626,-54.09684
2022-01-10 02:49:01+00:00,273.5064,3.67,12.65,47.84626,-54.09684
2022-01-10 02:59:01+00:00,284.4564,3.63,12.65,47.84626,-54.09684
2022-01-10 03:09:01+00:00,293.3014,3.62,12.65,47.84626,-54.09684
2022-01-10 03:19:00+00:00,291.8264,3.6,12.65,47.84626,-54.09684
2022-01-10 03:29:00+00:00,301.8815,3.6,12.65,47.84626,-54.09684
2022-01-10 03:39:00+00:00,313.728,3.6,12.65,47.84626,-54.09684
2022-01-10 03:49:00+00:00,319.4047,3.6,12.65,47.84626,-54.09684
2022-01-10 03:59:00+00:00,320.2413,3.58,12.65,47.84626,-54.09684
2022-01-10 04:09:00+00:00,325.208,3.5,12.65,47.84626,-54.09684
2022-01-10 04:19:00+00:00,322.6414,3.47,12.57,47.84626,-54.09684
2022-01-10 04:29:00+00:00,324.8929,3.43,12.57,47.84626,-54.09684
2022-01-10 04:39:00+00:00,332.1248,3.4,12.57,47.84626,-54.09684
2022-01-10 04:49:00+00:00,330.0847,3.4,12.57,47.84626,-54.09684
2022-01-10 04:59:00+00:00,330.0163,3.4,12.57,47.84626,-54.09684
2022-01-10 05:09:00+00:00,340.3679,3.4,12.57,47.84626,-54.09684
2022-01-10 05:19:00+00:00,347.4113,3.4,12.57,47.84626,-54.09684
2022-01-10 05:29:00+00:00,346.8813,3.39,12.57,47.84626,-54.09684
2022-01-10 05:39:00+00:00,349.6763,3.37,12.57,47.84626,-54.09684
2022-01-10 05:49:00+00:00,362.0329,3.37,12.57,47.84626,-54.09684
2022-01-10 05:59:00+00:00,360.5896,3.31,12.57,47.84626,-54.09684
2022-01-10 06:09:00+00:00,352.6229,3.3,12.57,47.84626,-54.09684
2022-01-10 06:19:00+00:00,358.4578,3.3,12.57,47.84626,-54.09684
2022-01-10 06:29:00+00:00,361.86300000000006,3.3,12.57,47.84626,-54.09684
2022-01-10 06:39:00+00:00,352.098,3.3,12.57,47.84626,-54.09684
2022-01-10 06:49:00+00:00,350.9313,3.3,12.57,47.84626,-54.09684
2022-01-10 06:59:00+00:00,359.5396,3.3,12.57,47.84626,-54.09684
2022-01-10 07:09:00+00:00,356.848,3.3,12.57,47.84626,-54.09684
2022-01-10 07:19:00+00:00,345.3162,3.3,12.57,47.84626,-54.09684
2022-01-10 07:29:00+00:00,346.8829,3.3,12.57,47.84626,-54.09684
2022-01-10 07:39:00+00:00,339.5146,3.3,12.57,47.84626,-54.09684
2022-01-10 07:49:00+00:00,322.593,3.3,12.57,47.84626,-54.09684
2022-01-10 07:59:00+00:00,317.9813,3.3,12.57,47.84626,-54.09684
2022-01-10 08:09:00+00:00,314.1097,3.3,12.57,47.84626,-54.09684
2022-01-10 08:19:00+00:00,303.1379,3.3,12.57,47.84626,-54.09684
2022-01-10 08:29:00+00:00,293.0147,3.3,12.57,47.84626,-54.09684
2022-01-10 08:39:00+00:00,292.5381,3.3,12.57,47.84626,-54.09684
2022-01-10 08:49:00+00:00,285.8697,3.3,12.57,47.84626,-54.09684
2022-01-10 08:59:00+00:00,274.983,3.3,12.57,47.84626,-54.09684
2022-01-10 09:09:00+00:00,268.0681,3.3,12.57,47.84626,-54.09684
2022-01-10 09:19:00+00:00,266.0097,3.3,12.57,47.84626,-54.09684
2022-01-10 09:29:00+00:00,259.5214,3.3,12.57,47.84626,-54.09684
2022-01-10 09:39:00+00:00,249.4681,3.3,12.57,47.84626,-54.09684
2022-01-10 09:49:00+00:00,241.8264,3.3,12.57,47.84626,-54.09684
2022-01-10 09:59:00+00:00,236.8631,3.3,12.57,47.84626,-54.09684
2022-01-10 10:09:00+00:00,231.0615,3.3,12.57,47.84626,-54.09684
2022-01-10 10:19:00+00:00,227.1514,3.3,12.57,47.84626,-54.09684
2022-01-10 10:29:00+00:00,221.7731,3.3,12.57,47.84626,-54.09684
2022-01-10 10:39:00+00:00,219.623,3.3,12.57,47.84626,-54.09684
2022-01-10 10:49:00+00:00,220.7148,3.3,12.57,47.84626,-54.09684
2022-01-10 10:59:00+00:00,219.9581,3.3,12.57,47.84626,-54.09684
2022-01-10 11:09:00+00:00,215.9231,3.3,12.57,47.84626,-54.09684
2022-01-10 11:19:00+00:00,218.3281,3.3,12.57,47.84626,-54.09684
2022-01-10 11:29:00+00:00,216.1248,3.3,12.57,47.84626,-54.09684
2022-01-10 11:39:00+00:00,211.8781,3.3,12.57,47.84626,-54.09684
2022-01-10 11:49:00+00:00,211.4648,3.3,12.57,47.84626,-54.09684
2022-01-10 11:59:00+00:00,214.8464,3.3,12.57,47.84626,-54.09684
2022-01-10 12:09:00+00:00,216.6998,3.3,12.57,47.84626,-54.09684
2022-01-10 12:19:00+00:00,214.4965,3.29,12.57,47.84626,-54.09684
2022-01-10 12:29:00+00:00,215.0414,3.28,12.57,47.84626,-54.09684
2022-01-10 12:39:00+00:00,219.6964,3.26,12.57,47.84626,-54.09684
2022-01-10 12:49:00+00:00,221.7964,3.27,12.57,47.84626,-54.09684
2022-01-10 12:59:00+00:00,218.7548,3.25,12.57,47.84626,-54.09684
2022-01-10 13:09:00+00:00,216.0848,3.21,12.57,47.84626,-54.09684
2022-01-10 13:19:00+00:00,220.3898,3.21,12.65,47.84626,-54.09684
2022-01-10 13:29:00+00:00,224.5431,3.22,12.65,47.84626,-54.09684
2022-01-10 13:39:00+00:00,221.0764,3.21,12.65,47.84626,-54.09684
2022-01-10 13:49:00+00:00,212.2731,3.25,12.65,47.84626,-54.09684
2022-01-10 13:59:00+00:00,214.4965,3.27,12.65,47.84626,-54.09684
2022-01-10 14:09:00+00:00,223.0331,3.28,12.65,47.84626,-54.09684
2022-01-10 14:19:00+00:00,219.8715,3.29,12.65,47.84626,-54.09684
2022-01-10 14:29:00+00:00,215.5881,3.29,12.65,47.84626,-54.09684
2022-01-10 14:39:00+00:00,223.0081,3.29,12.65,47.84626,-54.09684
2022-01-10 14:49:00+00:00,231.9481,3.3,12.65,47.84626,-54.09684
2022-01-10 14:59:00+00:00,233.1215,3.3,12.65,47.84626,-54.09684
2022-01-10 15:09:00+00:00,239.1831,3.3,12.65,47.84626,-54.09684
2022-01-10 15:19:00+00:00,246.1014,3.3,12.65,47.84626,-54.09684
2022-01-10 15:29:00+00:00,252.2897,3.3,12.65,47.84626,-54.09684
2022-01-10 15:39:00+00:00,259.5481,3.3,12.65,47.84626,-54.09684
2022-01-10 15:49:00+00:00,265.933,3.3,12.65,47.84626,-54.09684
2022-01-10 15:59:00+00:00,269.1847,3.3,12.65,47.84626,-54.09684
2022-01-10 16:09:00+00:00,276.0964,3.3,12.65,47.84626,-54.09684
2022-01-10 16:19:00+00:00,288.8198,3.3,12.73,47.84626,-54.09684
2022-01-10 16:29:00+00:00,291.6164,3.3,12.73,47.84626,-54.09684
2022-01-10 16:39:00+00:00,291.358,3.3,12.73,47.84626,-54.09684
2022-01-10 16:49:00+00:00,298.4647,3.3,12.73,47.84626,-54.09684
2022-01-10 16:59:00+00:00,302.2563,3.3,12.73,47.84626,-54.09684
2022-01-10 17:09:00+00:00,299.9814,3.3,12.73,47.84626,-54.09684
2022-01-10 17:19:00+00:00,299.3613,3.3,12.73,47.84626,-54.09684
2022-01-10 17:29:00+00:00,306.853,3.3,12.73,47.84626,-54.09684
2022-01-10 17:39:00+00:00,306.0863,3.3,12.73,47.84626,-54.09684
2022-01-10 17:49:00+00:00,301.688,3.3,12.73,47.84626,-54.09684
2022-01-10 17:59:00+00:00,302.918,3.3,12.73,47.84626,-54.09684
2022-01-10 18:09:00+00:00,307.3046,3.3,12.73,47.84626,-54.09684
2022-01-10 18:19:00+00:00,308.6063,3.3,12.65,47.84626,-54.09684
2022-01-10 18:29:00+00:00,307.198,3.3,12.65,47.84626,-54.09684
2022-01-10 18:39:00+00:00,306.163,3.3,12.65,47.84626,-54.09684
2022-01-10 18:49:00+00:00,301.9763,3.3,12.65,47.84626,-54.09684
2022-01-10 18:59:00+00:00,297.628,3.3,12.65,47.84626,-54.09684
2022-01-10 19:09:00+00:00,305.4647,3.3,12.65,47.84626,-54.09684
2022-01-10 19:19:00+00:00,301.4747,3.3,12.57,47.84626,-54.09684
2022-01-10 19:29:00+00:00,290.3997,3.3,12.57,47.84626,-54.09684
2022-01-10 19:39:00+00:00,290.0497,3.3,12.57,47.84626,-54.09684
2022-01-10 19:49:00+00:00,294.5564,3.3,12.57,47.84626,-54.09684
2022-01-10 19:59:00+00:00,287.5763,3.3,12.57,47.84626,-54.09684
2022-01-10 20:09:00+00:00,273.5864,3.29,12.57,47.84626,-54.09684
2022-01-10 20:19:00+00:00,274.723,3.29,12.57,47.84626,-54.09684
2022-01-10 20:29:00+00:00,273.0031,3.28,12.57,47.84626,-54.09684
2022-01-10 20:39:00+00:00,268.1114,3.28,12.57,47.84626,-54.09684
2022-01-10 20:49:00+00:00,256.6714,3.25,12.57,47.84626,-54.09684
2022-01-10 20:59:00+00:00,255.0397,3.23,12.57,47.84626,-54.09684
2022-01-10 21:09:00+00:00,255.0247,3.25,12.57,47.84626,-54.09684
2022-01-10 21:19:00+00:00,249.6481,3.22,12.57,47.84626,-54.09684
2022-01-10 21:29:00+00:00,244.2715,3.2,12.57,47.84626,-54.09684
2022-01-10 21:39:00+00:00,248.4664,3.23,12.57,47.84626,-54.09684
2022-01-10 21:49:00+00:00,247.3598,3.24,12.57,47.84626,-54.09684
2022-01-10 21:59:00+00:00,239.0981,3.2,12.57,47.84626,-54.09684
2022-01-10 22:09:00+00:00,239.1298,3.2,12.57,47.84626,-54.09684
2022-01-10 22:19:00+00:00,243.9531,3.2,12.57,47.84626,-54.09684
2022-01-10 22:29:00+00:00,241.0448,3.2,12.57,47.84626,-54.09684
2022-01-10 22:39:00+00:00,239.6297,3.2,12.57,47.84626,-54.09684
2022-01-10 22:49:00+00:00,244.9314,3.2,12.57,47.84626,-54.09684
2022-01-10 22:59:00+00:00,246.1347,3.2,12.57,47.84626,-54.09684
2022-01-10 23:09:00+00:00,246.1014,3.18,12.57,47.84626,-54.09684
2022-01-10 23:19:00+00:00,249.5781,3.15,12.57,47.84626,-54.09684
2022-01-10 23:29:00+00:00,247.9697,3.12,12.57,47.84626,-54.09684
2022-01-10 23:39:00+00:00,239.8181,3.1,12.57,47.84626,-54.09684
2022-01-10 23:49:00+00:00,243.0997,3.1,12.57,47.84626,-54.09684
2022-01-10 23:59:00+00:00,247.3114,3.1,12.57,47.84626,-54.09684
